Time,TemperatureF,DewpointF,PressureIn,WindDirection,WindDirectionDegrees,WindSpeedMPH,WindSpeedGustMPH,Humidity,HourlyPrecipIn,Conditions,Clouds,dailyrainin,SoftwareType,DateUTC
2013-08-03 00:00:00,52.5,49.4,29.94,SW,219,0.0,0.0,89,0.00,,,0.00,Wunderground v.1.15,2013-08-03 07:00:00,
2013-08-03 00:10:00,52.5,49.7,29.94,ESE,117,0.0,0.0,90,0.00,,,0.00,Wunderground v.1.15,2013-08-03 07:10:00,
2013-08-03 00:15:00,52.5,49.7,29.94,ESE,117,0.0,0.0,90,0.00,,,0.00,Wunderground v.1.15,2013-08-03 07:15:00,
2013-08-03 00:20:00,52.5,49.7,29.94,ESE,117,0.0,0.0,90,0.00,,,0.00,Wunderground v.1.15,2013-08-03 07:20:00,
2013-08-03 00:25:00,52.3,49.5,29.94,ESE,117,0.0,0.0,90,0.00,,,0.00,Wunderground v.1.15,2013-08-03 07:25:00,
2013-08-03 00:34:00,52.2,49.7,29.94,ESE,117,0.0,0.0,91,0.00,,,0.00,Wunderground v.1.15,2013-08-03 07:34:00,
2013-08-03 00:40:00,52.1,49.6,29.94,ESE,117,0.0,0.0,91,0.00,,,0.00,Wunderground v.1.15,2013-08-03 07:40:00,
2013-08-03 00:45:00,52.1,49.6,29.94,ESE,117,0.0,0.0,91,0.00,,,0.00,Wunderground v.1.15,2013-08-03 07:45:00,
2013-08-03 00:50:00,52.1,49.6,29.94,ESE,117,0.0,0.0,91,0.00,,,0.00,Wunderground v.1.15,2013-08-03 07:50:00,
2013-08-03 00:55:00,52.2,49.9,29.94,ESE,117,0.0,0.0,92,0.00,,,0.00,Wunderground v.1.15,2013-08-03 07:55:00,
2013-08-03 01:00:00,52.3,50.0,29.94,ESE,117,0.0,0.0,92,0.00,,,0.00,Wunderground v.1.15,2013-08-03 08:00:00,
2013-08-03 01:05:00,52.3,50.0,29.94,ESE,117,0.0,0.0,92,0.00,,,0.00,Wunderground v.1.15,2013-08-03 08:05:00,
2013-08-03 01:15:00,52.3,50.0,29.94,ESE,117,0.0,0.0,92,0.00,,,0.00,Wunderground v.1.15,2013-08-03 08:15:00,
2013-08-03 01:20:00,52.4,50.4,29.94,ESE,117,0.0,0.0,93,0.00,,,0.00,Wunderground v.1.15,2013-08-03 08:20:00,
2013-08-03 01:25:00,52.4,50.4,29.94,ESE,117,0.0,0.0,93,0.00,,,0.00,Wunderground v.1.15,2013-08-03 08:25:00,
2013-08-03 01:30:00,52.4,50.1,29.94,ESE,117,0.0,0.0,92,0.00,,,0.00,Wunderground v.1.15,2013-08-03 08:30:00,
2013-08-03 01:35:00,52.2,49.9,29.93,ESE,117,0.0,0.0,92,0.00,,,0.00,Wunderground v.1.15,2013-08-03 08:35:00,
2013-08-03 01:40:00,52.2,50.2,29.93,ESE,117,0.0,0.0,93,0.00,,,0.00,Wunderground v.1.15,2013-08-03 08:40:00,
2013-08-03 01:45:00,52.2,50.2,29.93,ESE,117,0.0,0.0,93,0.00,,,0.00,Wunderground v.1.15,2013-08-03 08:45:00,
2013-08-03 01:50:00,52.1,50.1,29.93,ESE,117,0.0,0.0,93,0.00,,,0.00,Wunderground v.1.15,2013-08-03 08:50:00,
2013-08-03 01:55:00,52.3,50.3,29.93,East,94,0.0,0.0,93,0.00,,,0.00,Wunderground v.1.15,2013-08-03 08:55:00,
2013-08-03 02:00:00,52.3,50.3,29.93,East,94,0.0,0.0,93,0.00,,,0.00,Wunderground v.1.15,2013-08-03 09:00:00,
2013-08-03 02:10:00,52.3,50.3,29.93,West,267,0.0,3.0,93,0.00,,,0.00,Wunderground v.1.15,2013-08-03 09:10:00,
2013-08-03 02:15:00,52.4,50.4,29.93,WSW,242,0.0,3.0,93,0.00,,,0.00,Wunderground v.1.15,2013-08-03 09:15:00,
2013-08-03 02:20:00,52.5,50.5,29.93,ESE,123,0.0,0.0,93,0.00,,,0.00,Wunderground v.1.15,2013-08-03 09:20:00,
2013-08-03 02:30:00,52.5,50.5,29.93,SE,141,0.0,0.0,93,0.00,,,0.00,Wunderground v.1.15,2013-08-03 09:30:00,
2013-08-03 02:35:00,52.4,50.4,29.93,SE,141,0.0,0.0,93,0.00,,,0.00,Wunderground v.1.15,2013-08-03 09:35:00,
2013-08-03 02:40:00,52.3,50.3,29.93,SE,141,0.0,0.0,93,0.00,,,0.00,Wunderground v.1.15,2013-08-03 09:40:00,
2013-08-03 02:45:00,52.3,50.3,29.93,SE,141,0.0,1.0,93,0.00,,,0.00,Wunderground v.1.15,2013-08-03 09:45:00,
2013-08-03 02:55:00,52.4,50.4,29.93,SE,141,0.0,0.0,93,0.00,,,0.00,Wunderground v.1.15,2013-08-03 09:55:00,
2013-08-03 03:00:00,52.4,50.4,29.93,SE,137,0.0,0.0,93,0.00,,,0.00,Wunderground v.1.15,2013-08-03 10:00:00,
2013-08-03 03:05:00,52.3,50.3,29.93,SE,133,0.0,0.0,93,0.00,,,0.00,Wunderground v.1.15,2013-08-03 10:05:00,
2013-08-03 03:15:00,52.3,50.3,29.93,SE,137,0.0,0.0,93,0.00,,,0.00,Wunderground v.1.15,2013-08-03 10:15:00,
2013-08-03 03:20:00,52.3,50.3,29.93,SE,137,0.0,0.0,93,0.00,,,0.00,Wunderground v.1.15,2013-08-03 10:20:00,
2013-08-03 03:25:00,52.3,50.6,29.93,SE,138,0.0,0.0,94,0.00,,,0.00,Wunderground v.1.15,2013-08-03 10:25:00,
2013-08-03 03:30:00,52.3,50.3,29.93,SE,138,0.0,0.0,93,0.00,,,0.00,Wunderground v.1.15,2013-08-03 10:30:00,
2013-08-03 03:40:00,52.3,50.3,29.93,SE,141,0.0,0.0,93,0.00,,,0.00,Wunderground v.1.15,2013-08-03 10:40:00,
2013-08-03 03:45:00,52.3,50.6,29.93,SE,141,0.0,0.0,94,0.00,,,0.00,Wunderground v.1.15,2013-08-03 10:45:00,
2013-08-03 03:54:00,52.2,50.5,29.93,SSE,148,0.0,0.0,94,0.00,,,0.00,Wunderground v.1.15,2013-08-03 10:54:00,
2013-08-03 04:00:00,52.2,50.5,29.93,West,280,0.0,0.0,94,0.00,,,0.00,Wunderground v.1.15,2013-08-03 11:00:00,
2013-08-03 04:05:00,52.3,50.6,29.93,West,280,1.0,1.0,94,0.00,,,0.00,Wunderground v.1.15,2013-08-03 11:05:00,
2013-08-03 04:10:00,52.3,50.6,29.93,SSE,153,0.0,0.0,94,0.00,,,0.00,Wunderground v.1.15,2013-08-03 11:10:00,
2013-08-03 04:20:00,52.3,50.6,29.93,SW,226,0.0,0.0,94,0.00,,,0.00,Wunderground v.1.15,2013-08-03 11:20:00,
2013-08-03 04:25:00,52.3,50.6,29.93,SW,226,0.0,0.0,94,0.00,,,0.00,Wunderground v.1.15,2013-08-03 11:25:00,
2013-08-03 04:30:00,52.3,50.6,29.93,SE,132,0.0,0.0,94,0.00,,,0.00,Wunderground v.1.15,2013-08-03 11:30:00,
2013-08-03 04:40:00,52.4,50.7,29.93,ESE,106,1.0,1.0,94,0.00,,,0.00,Wunderground v.1.15,2013-08-03 11:40:00,
2013-08-03 04:45:00,52.5,50.8,29.93,East,96,1.0,1.0,94,0.00,,,0.00,Wunderground v.1.15,2013-08-03 11:45:00,
2013-08-03 04:50:00,52.5,50.8,29.93,ESE,115,1.0,1.0,94,0.00,,,0.00,Wunderground v.1.15,2013-08-03 11:50:00,
2013-08-03 05:00:00,52.5,51.1,29.93,WSW,258,1.0,1.0,95,0.00,,,0.00,Wunderground v.1.15,2013-08-03 12:00:00,
2013-08-03 05:05:00,52.5,51.1,29.93,West,265,1.0,1.0,95,0.00,,,0.00,Wunderground v.1.15,2013-08-03 12:05:00,
2013-08-03 05:10:00,52.6,51.2,29.93,SE,130,1.0,1.0,95,0.00,,,0.00,Wunderground v.1.15,2013-08-03 12:10:00,
2013-08-03 05:20:00,52.6,51.2,29.93,NNW,327,0.0,0.0,95,0.00,,,0.00,Wunderground v.1.15,2013-08-03 12:20:00,
2013-08-03 05:25:00,52.6,51.2,29.93,ESE,105,1.0,1.0,95,0.00,,,0.00,Wunderground v.1.15,2013-08-03 12:25:00,
2013-08-03 05:35:00,52.6,51.2,29.94,West,268,0.0,1.0,95,0.00,,,0.01,Wunderground v.1.15,2013-08-03 12:35:00,
2013-08-03 05:40:00,52.6,51.2,29.94,WSW,257,0.0,0.0,95,0.00,,,0.01,Wunderground v.1.15,2013-08-03 12:40:00,
2013-08-03 05:50:00,52.5,51.1,29.94,WNW,299,0.0,0.0,95,0.00,,,0.01,Wunderground v.1.15,2013-08-03 12:50:00,
2013-08-03 05:59:00,52.4,51.0,29.94,WSW,254,0.0,3.0,95,0.00,,,0.01,Wunderground v.1.15,2013-08-03 12:59:00,
2013-08-03 06:05:00,52.4,51.0,29.94,ESE,114,0.0,3.0,95,0.00,,,0.01,Wunderground v.1.15,2013-08-03 13:05:00,
2013-08-03 06:10:00,52.4,51.0,29.94,WNW,298,0.0,0.0,95,0.00,,,0.01,Wunderground v.1.15,2013-08-03 13:10:00,
2013-08-03 06:15:00,52.4,51.0,29.95,West,269,0.0,0.0,95,0.00,,,0.01,Wunderground v.1.15,2013-08-03 13:15:00,
2013-08-03 06:20:00,52.3,50.9,29.95,NW,311,0.0,0.0,95,0.00,,,0.01,Wunderground v.1.15,2013-08-03 13:20:00,
2013-08-03 06:30:00,52.4,51.0,29.95,SSE,159,0.0,0.0,95,0.00,,,0.01,Wunderground v.1.15,2013-08-03 13:30:00,
2013-08-03 06:34:00,52.4,51.0,29.95,SE,130,0.0,0.0,95,0.00,,,0.01,Wunderground v.1.15,2013-08-03 13:34:00,
2013-08-03 06:40:00,52.4,51.0,29.95,WSW,255,0.0,0.0,95,0.00,,,0.01,Wunderground v.1.15,2013-08-03 13:40:00,
2013-08-03 06:45:00,52.3,50.9,29.95,SE,125,0.0,0.0,95,0.00,,,0.01,Wunderground v.1.15,2013-08-03 13:45:00,
2013-08-03 06:50:00,52.3,50.9,29.95,SSE,166,0.0,0.0,95,0.00,,,0.01,Wunderground v.1.15,2013-08-03 13:50:00,
2013-08-03 07:00:00,52.3,50.9,29.96,WNW,284,1.0,1.0,95,0.00,,,0.01,Wunderground v.1.15,2013-08-03 14:00:00,
2013-08-03 07:05:00,52.3,50.9,29.96,West,272,1.0,1.0,95,0.00,,,0.01,Wunderground v.1.15,2013-08-03 14:05:00,
2013-08-03 07:10:00,52.3,50.9,29.96,SSE,149,1.0,1.0,95,0.00,,,0.01,Wunderground v.1.15,2013-08-03 14:10:00,
2013-08-03 07:15:00,52.4,51.0,29.96,South,179,1.0,1.0,95,0.00,,,0.01,Wunderground v.1.15,2013-08-03 14:15:00,
2013-08-03 07:20:00,52.4,51.0,29.96,SE,127,1.0,1.0,95,0.00,,,0.01,Wunderground v.1.15,2013-08-03 14:20:00,
2013-08-03 07:30:00,52.6,51.2,29.97,South,175,0.0,0.0,95,0.00,,,0.01,Wunderground v.1.15,2013-08-03 14:30:00,
2013-08-03 07:35:00,52.7,51.3,29.97,NW,313,0.0,0.0,95,0.00,,,0.01,Wunderground v.1.15,2013-08-03 14:35:00,
2013-08-03 07:40:00,52.7,51.3,29.97,East,101,0.0,0.0,95,0.00,,,0.01,Wunderground v.1.15,2013-08-03 14:40:00,
2013-08-03 07:45:00,52.8,51.1,29.97,West,275,0.0,0.0,94,0.00,,,0.01,Wunderground v.1.15,2013-08-03 14:45:00,
2013-08-03 07:50:00,52.9,51.2,29.98,WSW,247,1.0,1.0,94,0.00,,,0.01,Wunderground v.1.15,2013-08-03 14:50:00,
2013-08-03 08:00:00,53.1,51.4,29.98,South,179,1.0,1.0,94,0.00,,,0.01,Wunderground v.1.15,2013-08-03 15:00:00,
2013-08-03 08:05:00,53.2,51.5,29.98,ESE,116,1.0,1.0,94,0.00,,,0.01,Wunderground v.1.15,2013-08-03 15:05:00,
2013-08-03 08:10:00,53.4,51.7,29.98,WSW,251,1.0,1.0,94,0.00,,,0.01,Wunderground v.1.15,2013-08-03 15:10:00,
2013-08-03 08:15:00,53.5,51.5,29.98,NNW,338,0.0,1.0,93,0.00,,,0.01,Wunderground v.1.15,2013-08-03 15:15:00,
2013-08-03 08:20:00,53.7,51.7,29.98,WNW,286,0.0,0.0,93,0.00,,,0.01,Wunderground v.1.15,2013-08-03 15:20:00,
2013-08-03 08:25:00,53.9,51.9,29.98,WSW,246,0.0,0.0,93,0.00,,,0.01,Wunderground v.1.15,2013-08-03 15:25:00,
2013-08-03 08:30:00,54.0,51.7,29.98,NNW,332,0.0,0.0,92,0.00,,,0.01,Wunderground v.1.15,2013-08-03 15:30:00,
2013-08-03 08:35:00,54.2,51.9,29.98,SSW,213,1.0,1.0,92,0.00,,,0.01,Wunderground v.1.15,2013-08-03 15:35:00,
2013-08-03 08:45:00,54.8,52.2,29.98,WSW,252,1.0,2.0,91,0.00,,,0.01,Wunderground v.1.15,2013-08-03 15:45:00,
2013-08-03 08:50:00,55.0,52.4,29.98,WNW,300,0.0,1.0,91,0.00,,,0.01,Wunderground v.1.15,2013-08-03 15:50:00,
2013-08-03 08:54:00,55.1,52.2,29.98,NW,304,0.0,1.0,90,0.00,,,0.01,Wunderground v.1.15,2013-08-03 15:54:00,
2013-08-03 09:00:00,55.4,52.2,29.98,West,266,0.0,2.0,89,0.00,,,0.01,Wunderground v.1.15,2013-08-03 16:00:00,
2013-08-03 09:05:00,55.8,52.9,29.98,West,260,0.0,2.0,90,0.00,,,0.01,Wunderground v.1.15,2013-08-03 16:05:00,
2013-08-03 09:10:00,56.6,53.1,29.98,ESE,117,0.0,0.0,88,0.00,,,0.01,Wunderground v.1.15,2013-08-03 16:10:00,
2013-08-03 09:15:00,57.4,53.2,29.98,SW,235,0.0,0.0,86,0.00,,,0.01,Wunderground v.1.15,2013-08-03 16:15:00,
2013-08-03 09:20:00,58.1,53.6,29.98,SW,223,0.0,0.0,85,0.00,,,0.01,Wunderground v.1.15,2013-08-03 16:20:00,
2013-08-03 09:25:00,58.7,53.5,29.98,SSE,153,1.0,1.0,83,0.00,,,0.01,Wunderground v.1.15,2013-08-03 16:25:00,
2013-08-03 09:30:00,59.3,53.8,29.98,SW,218,1.0,1.0,82,0.00,,,0.01,Wunderground v.1.15,2013-08-03 16:30:00,
2013-08-03 09:35:00,59.3,53.8,29.98,SSE,159,1.0,4.0,82,0.00,,,0.01,Wunderground v.1.15,2013-08-03 16:35:00,
2013-08-03 09:45:00,60.4,54.2,29.98,West,260,1.0,2.0,80,0.00,,,0.01,Wunderground v.1.15,2013-08-03 16:45:00,
2013-08-03 09:49:00,61.2,54.6,29.98,WSW,248,0.0,0.0,79,0.00,,,0.01,Wunderground v.1.15,2013-08-03 16:49:00,
2013-08-03 09:55:00,62.0,54.3,29.98,West,277,0.0,1.0,76,0.00,,,0.01,Wunderground v.1.15,2013-08-03 16:55:00,
2013-08-03 10:00:00,62.5,54.5,29.98,WSW,254,0.0,0.0,75,0.00,,,0.01,Wunderground v.1.15,2013-08-03 17:00:00,
2013-08-03 10:05:00,62.8,54.8,29.98,SW,223,0.0,1.0,75,0.00,,,0.01,Wunderground v.1.15,2013-08-03 17:05:00,
2013-08-03 10:09:00,63.2,54.8,29.98,WSW,249,0.0,4.0,74,0.00,,,0.01,Wunderground v.1.15,2013-08-03 17:09:00,
2013-08-03 10:15:00,63.4,55.0,29.98,ESE,123,1.0,4.0,74,0.00,,,0.01,Wunderground v.1.15,2013-08-03 17:15:00,
2013-08-03 10:20:00,64.1,55.3,29.98,SSE,157,1.0,1.0,73,0.00,,,0.01,Wunderground v.1.15,2013-08-03 17:20:00,
2013-08-03 10:25:00,65.3,55.7,29.98,SW,231,0.0,2.0,71,0.00,,,0.01,Wunderground v.1.15,2013-08-03 17:25:00,
2013-08-03 10:30:00,65.7,55.6,29.98,SSE,150,0.0,0.0,70,0.00,,,0.01,Wunderground v.1.15,2013-08-03 17:30:00,
2013-08-03 10:35:00,65.0,54.6,29.98,WSW,257,1.0,1.0,69,0.00,,,0.01,Wunderground v.1.15,2013-08-03 17:35:00,
2013-08-03 10:45:00,64.7,55.1,29.97,WSW,256,1.0,3.0,71,0.00,,,0.01,Wunderground v.1.15,2013-08-03 17:45:00,
2013-08-03 10:50:00,64.8,55.2,29.98,WSW,240,1.0,1.0,71,0.00,,,0.01,Wunderground v.1.15,2013-08-03 17:50:00,
2013-08-03 10:55:00,65.7,55.6,29.98,South,177,1.0,1.0,70,0.00,,,0.01,Wunderground v.1.15,2013-08-03 17:55:00,
2013-08-03 11:00:00,66.4,55.5,29.98,SE,137,1.0,4.0,68,0.00,,,0.01,Wunderground v.1.15,2013-08-03 18:00:00,
2013-08-03 11:05:00,67.0,55.7,29.98,SSE,165,1.0,4.0,67,0.00,,,0.01,Wunderground v.1.15,2013-08-03 18:05:00,
2013-08-03 11:10:00,67.5,55.7,29.98,ESE,117,1.0,1.0,66,0.00,,,0.01,Wunderground v.1.15,2013-08-03 18:10:00,
2013-08-03 11:15:00,67.8,55.2,29.97,WSW,246,1.0,2.0,64,0.00,,,0.01,Wunderground v.1.15,2013-08-03 18:15:00,
2013-08-03 11:24:00,68.3,56.1,29.97,SE,126,1.0,3.0,65,0.00,,,0.01,Wunderground v.1.15,2013-08-03 18:24:00,
2013-08-03 11:30:00,68.8,55.7,29.97,West,261,1.0,1.0,63,0.00,,,0.01,Wunderground v.1.15,2013-08-03 18:30:00,
2013-08-03 11:35:00,68.9,55.8,29.97,WSW,244,1.0,5.0,63,0.00,,,0.01,Wunderground v.1.15,2013-08-03 18:35:00,
2013-08-03 11:40:00,69.0,55.4,29.97,West,273,1.0,4.0,62,0.00,,,0.01,Wunderground v.1.15,2013-08-03 18:40:00,
2013-08-03 11:45:00,69.5,55.5,29.97,SW,227,1.0,4.0,61,0.00,,,0.01,Wunderground v.1.15,2013-08-03 18:45:00,
2013-08-03 11:50:00,69.9,55.8,29.97,WSW,250,1.0,1.0,61,0.00,,,0.01,Wunderground v.1.15,2013-08-03 18:50:00,
2013-08-03 11:55:00,70.7,56.1,29.97,WSW,246,1.0,1.0,60,0.00,,,0.01,Wunderground v.1.15,2013-08-03 18:55:00,
2013-08-03 12:05:00,71.6,56.5,29.97,West,269,1.0,1.0,59,0.00,,,0.01,Wunderground v.1.15,2013-08-03 19:05:00,
2013-08-03 12:10:00,72.0,55.9,29.97,ESE,116,1.0,1.0,57,0.00,,,0.01,Wunderground v.1.15,2013-08-03 19:10:00,
2013-08-03 12:15:00,72.2,55.6,29.97,SE,142,1.0,1.0,56,0.00,,,0.01,Wunderground v.1.15,2013-08-03 19:15:00,
2013-08-03 12:20:00,72.2,55.6,29.97,WSW,254,1.0,1.0,56,0.00,,,0.01,Wunderground v.1.15,2013-08-03 19:20:00,
2013-08-03 12:25:00,71.6,55.1,29.97,West,261,1.0,3.0,56,0.00,,,0.01,Wunderground v.1.15,2013-08-03 19:25:00,
2013-08-03 12:35:00,71.8,55.3,29.97,West,267,1.0,2.0,56,0.00,,,0.01,Wunderground v.1.15,2013-08-03 19:35:00,
2013-08-03 12:40:00,71.4,55.4,29.97,West,271,1.0,1.0,57,0.00,,,0.01,Wunderground v.1.15,2013-08-03 19:40:00,
2013-08-03 12:45:00,71.2,54.7,29.97,WNW,296,1.0,1.0,56,0.00,,,0.01,Wunderground v.1.15,2013-08-03 19:45:00,
2013-08-03 12:54:00,71.7,55.2,29.97,West,273,1.0,2.0,56,0.00,,,0.01,Wunderground v.1.15,2013-08-03 19:54:00,
2013-08-03 13:00:00,71.9,54.9,29.97,West,278,1.0,1.0,55,0.00,,,0.01,Wunderground v.1.15,2013-08-03 20:00:00,
2013-08-03 13:10:00,72.3,55.2,29.96,WSW,246,1.0,3.0,55,0.00,,,0.01,Wunderground v.1.15,2013-08-03 20:10:00,
2013-08-03 13:15:00,72.7,55.1,29.96,West,259,1.0,3.0,54,0.00,,,0.01,Wunderground v.1.15,2013-08-03 20:15:00,
2013-08-03 13:20:00,73.2,55.0,29.96,West,264,1.0,1.0,53,0.00,,,0.01,Wunderground v.1.15,2013-08-03 20:20:00,
2013-08-03 13:25:00,73.2,55.0,29.96,WNW,286,1.0,2.0,53,0.00,,,0.01,Wunderground v.1.15,2013-08-03 20:25:00,
2013-08-03 13:30:00,73.7,55.5,29.96,SE,133,1.0,1.0,53,0.00,,,0.01,Wunderground v.1.15,2013-08-03 20:30:00,
2013-08-03 13:35:00,74.1,54.8,29.96,South,171,1.0,1.0,51,0.00,,,0.01,Wunderground v.1.15,2013-08-03 20:35:00,
2013-08-03 13:45:00,73.6,54.9,29.96,NW,305,2.0,2.0,52,0.00,,,0.01,Wunderground v.1.15,2013-08-03 20:45:00,
2013-08-03 13:50:00,74.2,55.4,29.96,ESE,111,2.0,2.0,52,0.00,,,0.01,Wunderground v.1.15,2013-08-03 20:50:00,
2013-08-03 13:55:00,74.9,55.6,29.95,WSW,253,1.0,3.0,51,0.00,,,0.01,Wunderground v.1.15,2013-08-03 20:55:00,
2013-08-03 14:00:00,75.7,55.7,29.95,West,261,1.0,1.0,50,0.00,,,0.01,Wunderground v.1.15,2013-08-03 21:00:00,
2013-08-03 14:05:00,76.1,55.5,29.95,WSW,258,1.0,1.0,49,0.00,,,0.01,Wunderground v.1.15,2013-08-03 21:05:00,
2013-08-03 14:10:00,76.5,55.9,29.95,West,261,1.0,1.0,49,0.00,,,0.01,Wunderground v.1.15,2013-08-03 21:10:00,
2013-08-03 14:20:00,76.9,55.1,29.95,WSW,250,1.0,2.0,47,0.00,,,0.01,Wunderground v.1.15,2013-08-03 21:20:00,
2013-08-03 14:25:00,76.9,54.5,29.95,West,259,1.0,4.0,46,0.00,,,0.01,Wunderground v.1.15,2013-08-03 21:25:00,
2013-08-03 14:30:00,77.1,54.7,29.95,West,260,1.0,1.0,46,0.00,,,0.01,Wunderground v.1.15,2013-08-03 21:30:00,
2013-08-03 14:35:00,77.0,54.6,29.95,West,273,1.0,1.0,46,0.00,,,0.01,Wunderground v.1.15,2013-08-03 21:35:00,
2013-08-03 14:45:00,76.7,54.4,29.95,West,259,1.0,2.0,46,0.00,,,0.01,Wunderground v.1.15,2013-08-03 21:45:00,
2013-08-03 14:50:00,76.7,53.8,29.95,West,261,2.0,2.0,45,0.00,,,0.01,Wunderground v.1.15,2013-08-03 21:50:00,
2013-08-03 14:55:00,77.1,53.5,29.94,WSW,258,1.0,3.0,44,0.00,,,0.01,Wunderground v.1.15,2013-08-03 21:55:00,
2013-08-03 15:00:00,77.0,53.4,29.94,WSW,256,1.0,1.0,44,0.00,,,0.01,Wunderground v.1.15,2013-08-03 22:00:00,
2013-08-03 15:10:00,77.4,52.5,29.94,West,267,1.0,1.0,42,0.00,,,0.01,Wunderground v.1.15,2013-08-03 22:10:00,
2013-08-03 15:15:00,77.6,53.3,29.94,SW,233,1.0,1.0,43,0.00,,,0.01,Wunderground v.1.15,2013-08-03 22:15:00,
2013-08-03 15:20:00,78.4,53.4,29.94,West,266,1.0,1.0,42,0.00,,,0.01,Wunderground v.1.15,2013-08-03 22:20:00,
2013-08-03 15:25:00,79.1,54.0,29.94,SW,229,1.0,1.0,42,0.00,,,0.01,Wunderground v.1.15,2013-08-03 22:25:00,
2013-08-03 15:35:00,78.7,55.6,29.94,WSW,242,1.0,2.0,45,0.00,,,0.01,Wunderground v.1.15,2013-08-03 22:35:00,
2013-08-03 15:40:00,78.7,55.6,29.94,West,275,1.0,2.0,45,0.00,,,0.01,Wunderground v.1.15,2013-08-03 22:40:00,
2013-08-03 15:45:00,78.4,55.3,29.94,SE,142,1.0,2.0,45,0.00,,,0.01,Wunderground v.1.15,2013-08-03 22:45:00,
2013-08-03 15:50:00,78.4,55.3,29.93,WNW,290,1.0,1.0,45,0.00,,,0.01,Wunderground v.1.15,2013-08-03 22:50:00,
2013-08-03 15:59:00,78.8,55.7,29.93,WSW,250,1.0,1.0,45,0.00,,,0.01,Wunderground v.1.15,2013-08-03 22:59:00,
2013-08-03 16:05:00,78.8,55.0,29.93,WSW,252,1.0,1.0,44,0.00,,,0.01,Wunderground v.1.15,2013-08-03 23:05:00,
2013-08-03 16:15:00,76.6,54.3,29.93,NNW,327,2.0,5.0,46,0.00,,,0.01,Wunderground v.1.15,2013-08-03 23:15:00,
2013-08-03 16:20:00,77.0,55.2,29.93,West,267,1.0,1.0,47,0.00,,,0.01,Wunderground v.1.15,2013-08-03 23:20:00,
2013-08-03 16:25:00,77.4,55.0,29.93,West,267,1.0,1.0,46,0.00,,,0.01,Wunderground v.1.15,2013-08-03 23:25:00,
2013-08-03 16:30:00,78.0,55.5,29.93,SE,137,1.0,4.0,46,0.00,,,0.01,Wunderground v.1.15,2013-08-03 23:30:00,
2013-08-03 16:35:00,77.8,54.8,29.93,SE,143,1.0,4.0,45,0.00,,,0.01,Wunderground v.1.15,2013-08-03 23:35:00,
2013-08-03 16:45:00,77.0,55.2,29.93,SE,146,1.0,1.0,47,0.00,,,0.01,Wunderground v.1.15,2013-08-03 23:45:00,
2013-08-03 16:50:00,77.3,54.3,29.93,SSE,148,1.0,1.0,45,0.00,,,0.01,Wunderground v.1.15,2013-08-03 23:50:00,
2013-08-03 16:55:00,76.5,54.2,29.93,NW,314,1.0,1.0,46,0.00,,,0.01,Wunderground v.1.15,2013-08-03 23:55:00,
2013-08-03 17:00:00,75.5,54.4,29.93,NNW,328,2.0,4.0,48,0.00,,,0.01,Wunderground v.1.15,2013-08-04 00:00:00,
2013-08-03 17:10:00,75.5,55.0,29.93,West,272,1.0,1.0,49,0.00,,,0.01,Wunderground v.1.15,2013-08-04 00:10:00,
2013-08-03 17:15:00,75.4,54.3,29.93,WSW,244,1.0,1.0,48,0.00,,,0.01,Wunderground v.1.15,2013-08-04 00:15:00,
2013-08-03 17:20:00,75.4,54.9,29.92,SW,235,1.0,1.0,49,0.00,,,0.01,Wunderground v.1.15,2013-08-04 00:20:00,
2013-08-03 17:29:00,75.8,54.7,29.92,ESE,114,1.0,1.0,48,0.00,,,0.01,Wunderground v.1.15,2013-08-04 00:29:00,
2013-08-03 17:35:00,75.9,54.8,29.92,WSW,253,0.0,1.0,48,0.00,,,0.01,Wunderground v.1.15,2013-08-04 00:35:00,
2013-08-03 17:40:00,75.9,54.8,29.92,NNW,331,1.0,1.0,48,0.00,,,0.01,Wunderground v.1.15,2013-08-04 00:40:00,
2013-08-03 17:45:00,75.7,55.2,29.92,WNW,295,1.0,1.0,49,0.00,,,0.01,Wunderground v.1.15,2013-08-04 00:45:00,
2013-08-03 17:55:00,74.8,54.4,29.92,WNW,290,1.0,1.0,49,0.00,,,0.01,Wunderground v.1.15,2013-08-04 00:55:00,
2013-08-03 18:00:00,74.1,54.3,29.92,NNW,336,2.0,2.0,50,0.00,,,0.01,Wunderground v.1.15,2013-08-04 01:00:00,
2013-08-03 18:05:00,73.3,54.1,29.92,NNW,340,2.0,2.0,51,0.00,,,0.01,Wunderground v.1.15,2013-08-04 01:05:00,
2013-08-03 18:10:00,73.0,53.8,29.92,West,273,2.0,3.0,51,0.00,,,0.01,Wunderground v.1.15,2013-08-04 01:10:00,
2013-08-03 18:15:00,72.6,54.0,29.92,WNW,301,2.0,3.0,52,0.00,,,0.01,Wunderground v.1.15,2013-08-04 01:15:00,
2013-08-03 18:20:00,72.5,53.9,29.92,WNW,282,1.0,1.0,52,0.00,,,0.01,Wunderground v.1.15,2013-08-04 01:20:00,
2013-08-03 18:30:00,72.5,53.9,29.92,WNW,302,1.0,1.0,52,0.00,,,0.01,Wunderground v.1.15,2013-08-04 01:30:00,
2013-08-03 18:35:00,72.3,53.2,29.92,NW,305,1.0,1.0,51,0.00,,,0.01,Wunderground v.1.15,2013-08-04 01:35:00,
2013-08-03 18:40:00,72.1,53.5,29.92,West,266,1.0,1.0,52,0.00,,,0.01,Wunderground v.1.15,2013-08-04 01:40:00,
2013-08-03 18:49:00,71.7,53.1,29.92,NW,307,1.0,3.0,52,0.00,,,0.01,Wunderground v.1.15,2013-08-04 01:49:00,
2013-08-03 18:55:00,71.0,53.5,29.92,West,281,1.0,3.0,54,0.00,,,0.01,Wunderground v.1.15,2013-08-04 01:55:00,
2013-08-03 19:00:00,70.1,53.2,29.92,WNW,303,1.0,2.0,55,0.00,,,0.01,Wunderground v.1.15,2013-08-04 02:00:00,
2013-08-03 19:10:00,68.5,53.1,29.92,WNW,300,0.0,0.0,58,0.00,,,0.01,Wunderground v.1.15,2013-08-04 02:10:00,
2013-08-03 19:15:00,67.4,53.0,29.92,WNW,284,1.0,1.0,60,0.00,,,0.01,Wunderground v.1.15,2013-08-04 02:15:00,
2013-08-03 19:20:00,66.1,52.7,29.92,West,271,1.0,3.0,62,0.00,,,0.01,Wunderground v.1.15,2013-08-04 02:20:00,
2013-08-03 19:30:00,64.3,52.3,29.92,NW,309,1.0,1.0,65,0.00,,,0.01,Wunderground v.1.15,2013-08-04 02:30:00,
2013-08-03 19:35:00,63.8,52.2,29.92,WNW,286,0.0,1.0,66,0.00,,,0.01,Wunderground v.1.15,2013-08-04 02:35:00,
2013-08-03 19:40:00,63.2,52.1,29.92,NW,313,0.0,1.0,67,0.00,,,0.01,Wunderground v.1.15,2013-08-04 02:40:00,
2013-08-03 19:45:00,62.7,52.0,29.92,WNW,294,1.0,1.0,68,0.00,,,0.01,Wunderground v.1.15,2013-08-04 02:45:00,
2013-08-03 19:55:00,62.1,51.8,29.92,West,271,0.0,1.0,69,0.00,,,0.01,Wunderground v.1.15,2013-08-04 02:55:00,
2013-08-03 20:00:00,61.7,51.8,29.92,WSW,248,0.0,0.0,70,0.00,,,0.01,Wunderground v.1.15,2013-08-04 03:00:00,
2013-08-03 20:05:00,61.4,51.5,29.92,WSW,246,0.0,1.0,70,0.00,,,0.01,Wunderground v.1.15,2013-08-04 03:05:00,
2013-08-03 20:15:00,60.9,51.8,29.92,WNW,288,0.0,1.0,72,0.00,,,0.01,Wunderground v.1.15,2013-08-04 03:15:00,
2013-08-03 20:19:00,60.5,51.4,29.93,WNW,288,0.0,0.0,72,0.00,,,0.01,Wunderground v.1.15,2013-08-04 03:19:00,
2013-08-03 20:25:00,60.2,51.5,29.93,WNW,288,0.0,0.0,73,0.00,,,0.01,Wunderground v.1.15,2013-08-04 03:25:00,
2013-08-03 20:30:00,59.8,51.5,29.93,WNW,288,0.0,0.0,74,0.00,,,0.01,Wunderground v.1.15,2013-08-04 03:30:00,
2013-08-03 20:40:00,59.0,51.1,29.93,WNW,288,0.0,0.0,75,0.00,,,0.01,Wunderground v.1.15,2013-08-04 03:40:00,
2013-08-03 20:45:00,58.6,51.1,29.93,WNW,288,0.0,0.0,76,0.00,,,0.01,Wunderground v.1.15,2013-08-04 03:45:00,
2013-08-03 20:50:00,58.2,51.0,29.93,WNW,288,0.0,0.0,77,0.00,,,0.01,Wunderground v.1.15,2013-08-04 03:50:00,
2013-08-03 20:55:00,57.9,50.7,29.93,WNW,288,0.0,0.0,77,0.00,,,0.01,Wunderground v.1.15,2013-08-04 03:55:00,
2013-08-03 21:05:00,57.3,50.5,29.94,WNW,288,0.0,0.0,78,0.00,,,0.01,Wunderground v.1.15,2013-08-04 04:05:00,
2013-08-03 21:10:00,57.0,50.5,29.94,WNW,288,0.0,0.0,79,0.00,,,0.01,Wunderground v.1.15,2013-08-04 04:10:00,
2013-08-03 21:15:00,56.6,50.5,29.94,WNW,288,0.0,0.0,80,0.00,,,0.01,Wunderground v.1.15,2013-08-04 04:15:00,
2013-08-03 21:20:00,56.4,50.3,29.94,WNW,288,0.0,0.0,80,0.00,,,0.01,Wunderground v.1.15,2013-08-04 04:20:00,
2013-08-03 21:25:00,56.2,49.8,29.94,WNW,288,0.0,0.0,79,0.00,,,0.01,Wunderground v.1.15,2013-08-04 04:25:00,
2013-08-03 21:35:00,56.3,50.2,29.95,WNW,290,0.0,0.0,80,0.00,,,0.01,Wunderground v.1.15,2013-08-04 04:35:00,
2013-08-03 21:40:00,56.6,50.2,29.95,WNW,290,0.0,0.0,79,0.00,,,0.01,Wunderground v.1.15,2013-08-04 04:40:00,
2013-08-03 21:45:00,56.9,50.5,29.95,NW,306,0.0,0.0,79,0.00,,,0.01,Wunderground v.1.15,2013-08-04 04:45:00,
2013-08-03 21:50:00,57.1,50.6,29.95,NW,306,0.0,0.0,79,0.00,,,0.01,Wunderground v.1.15,2013-08-04 04:50:00,
2013-08-03 22:00:00,57.4,50.6,29.95,NW,306,0.0,0.0,78,0.00,,,0.01,Wunderground v.1.15,2013-08-04 05:00:00,
2013-08-03 22:05:00,57.4,50.6,29.95,NW,323,0.0,0.0,78,0.00,,,0.01,Wunderground v.1.15,2013-08-04 05:05:00,
2013-08-03 22:10:00,57.2,50.7,29.95,NW,320,0.0,0.0,79,0.00,,,0.01,Wunderground v.1.15,2013-08-04 05:10:00,
2013-08-03 22:15:00,57.1,50.6,29.96,NW,319,0.0,0.0,79,0.00,,,0.01,Wunderground v.1.15,2013-08-04 05:15:00,
2013-08-03 22:25:00,56.4,50.6,29.95,NW,315,0.0,0.0,81,0.00,,,0.01,Wunderground v.1.15,2013-08-04 05:25:00,
2013-08-03 22:30:00,55.9,50.5,29.95,WSW,243,1.0,1.0,82,0.00,,,0.01,Wunderground v.1.15,2013-08-04 05:30:00,
2013-08-03 22:40:00,55.3,50.2,29.96,WSW,243,0.0,0.0,83,0.00,,,0.01,Wunderground v.1.15,2013-08-04 05:40:00,
2013-08-03 22:45:00,55.0,49.9,29.96,WSW,244,0.0,0.0,83,0.00,,,0.01,Wunderground v.1.15,2013-08-04 05:45:00,
2013-08-03 22:50:00,54.9,50.2,29.96,NNW,327,0.0,0.0,84,0.00,,,0.01,Wunderground v.1.15,2013-08-04 05:50:00,
2013-08-03 23:00:00,55.1,50.0,29.96,NNW,348,0.0,0.0,83,0.00,,,0.01,Wunderground v.1.15,2013-08-04 06:00:00,
2013-08-03 23:05:00,55.1,50.0,29.96,NNW,348,0.0,0.0,83,0.00,,,0.01,Wunderground v.1.15,2013-08-04 06:05:00,
2013-08-03 23:10:00,55.0,49.9,29.96,ESE,102,0.0,2.0,83,0.00,,,0.01,Wunderground v.1.15,2013-08-04 06:10:00,
2013-08-03 23:20:00,55.2,50.4,29.96,SSE,161,0.0,0.0,84,0.00,,,0.01,Wunderground v.1.15,2013-08-04 06:20:00,
2013-08-03 23:30:00,55.1,50.4,29.96,ESE,119,0.0,0.0,84,0.00,,,0.01,Wunderground v.1.15,2013-08-04 06:30:00,
2013-08-03 23:35:00,54.9,50.5,29.96,SE,126,0.0,0.0,85,0.00,,,0.01,Wunderground v.1.15,2013-08-04 06:35:00,
2013-08-03 23:40:00,54.8,50.4,29.97,SE,135,0.0,0.0,85,0.00,,,0.01,Wunderground v.1.15,2013-08-04 06:40:00,
2013-08-03 23:49:00,54.5,50.1,29.97,SE,135,0.0,0.0,85,0.00,,,0.01,Wunderground v.1.15,2013-08-04 06:49:00,
2013-08-03 23:55:00,54.4,50.3,29.97,WNW,282,0.0,2.0,86,0.00,,,0.01,Wunderground v.1.15,2013-08-04 06:55:00,